This is the latest recevied weather packets stored in our database for station/object DB0HRH-10. If no packets are shown the sender has not sent any weather packets the latest 10 day(s).
| Time | Temp. | Humidity | Pressure | Rain* | Wind** | Luminosity | Snow |
|---|---|---|---|---|---|---|---|
| 1777565830 | 15.56° C | 21% | 1026.1 hPa | - | - | - | - |
| 1777564930 | 16.11° C | 23% | 1025.9 hPa | - | - | - | - |
| 1777564030 | 16.67° C | 23% | 1025.9 hPa | - | - | - | - |
| 1777563130 | 16.67° C | 23% | 1025.8 hPa | - | - | - | - |
| 1777562230 | 16.67° C | 23% | 1025.9 hPa | - | - | - | - |
| 1777561330 | 16.67° C | 25% | 1025.7 hPa | - | - | - | - |
| 1777560430 | 17.22° C | 25% | 1025.7 hPa | - | - | - | - |
| 1777559530 | 17.22° C | 25% | 1025.6 hPa | - | - | - | - |
| 1777558630 | 17.22° C | 25% | 1025.7 hPa | - | - | - | - |
| 1777557730 | 18.89° C | 25% | 1025.7 hPa | - | - | - | - |
| 1777556829 | 18.33° C | 25% | 1025.6 hPa | - | - | - | - |
| 1777555929 | 17.78° C | 27% | 1025.6 hPa | - | - | - | - |
| 1777555029 | 18.33° C | 25% | 1025.7 hPa | - | - | - | - |
| 1777554129 | 19.44° C | 25% | 1025.7 hPa | - | - | - | - |
| 1777553229 | 18.33° C | 25% | 1025.8 hPa | - | - | - | - |
| 1777552329 | 17.78° C | 27% | 1026 hPa | - | - | - | - |
| 1777551429 | 19.44° C | 25% | 1026 hPa | - | - | - | - |
| 1777550529 | 19.44° C | 24% | 1026.1 hPa | - | - | - | - |
| 1777549629 | 19.44° C | 26% | 1026.1 hPa | - | - | - | - |
| 1777548729 | 18.89° C | 25% | 1025.9 hPa | - | - | - | - |
| 1777547829 | 18.33° C | 25% | 1025.9 hPa | - | - | - | - |
| 1777546929 | 18.89° C | 25% | 1026 hPa | - | - | - | - |
| 1777546029 | 17.78° C | 27% | 1026.1 hPa | - | - | - | - |
| 1777545128 | 17.78° C | 26% | 1026.3 hPa | - | - | - | - |
| 1777544228 | 17.22° C | 26% | 1026.1 hPa | - | - | - | - |
* Rain since midnight (hover to see other rain measurements)
** Current wind speed in m/s (hover to see current wind gust speed)